contact:dominique.lefevre@mio.osupytheas.fr, maurice.libes@osupytheas.fr, didier.mallarino@osupytheas.fr
Project:EMSO http://www.emso-fr.org/EMSO-France
Depth: 2436.0 m
Title:EMSO Ligure Ouest : Data MII capteur MICROCAT
DateTime_Computer,Latitude,Longitude,Temperature,Conductivity,Pressure,DateTime_Instrument
DateTime_Computer,Latitude,Longitude,degC,S m-1,dbar,DateTime_Instrument
2020-09-26T00:01:09Z,42.805,6.029,13.2977,4.59980,2470.063,2020-9-26T02:02:02Z
2020-09-26T00:04:13Z,42.805,6.029,13.2978,4.59981,2470.017,2020-9-26T02:05:06Z
2020-09-26T00:07:18Z,42.805,6.029,13.2978,4.59983,2470.053,2020-9-26T02:08:10Z
2020-09-26T00:10:22Z,42.805,6.029,13.2977,4.59981,2470.04,2020-9-26T02:11:14Z
2020-09-26T00:13:26Z,42.805,6.029,13.2979,4.59981,2470.063,2020-9-26T02:14:18Z
2020-09-26T00:16:30Z,42.805,6.029,13.2978,4.59980,2470.017,2020-9-26T02:17:23Z
2020-09-26T00:19:32Z,42.805,6.029,13.2979,4.59981,2470.063,2020-9-26T02:20:25Z
2020-09-26T00:22:37Z,42.805,6.029,13.2979,4.59983,2470.017,2020-9-26T02:23:29Z
2020-09-26T00:25:40Z,42.805,6.029,13.2978,4.59986,2470.03,2020-9-26T02:26:33Z
2020-09-26T00:28:44Z,42.805,6.029,13.2979,4.59981,2470.017,2020-9-26T02:29:36Z
2020-09-26T00:31:46Z,42.805,6.029,13.2976,4.59982,2470.017,2020-9-26T02:32:39Z
2020-09-26T00:34:49Z,42.805,6.029,13.2980,4.59981,2470.017,2020-9-26T02:35:41Z
2020-09-26T00:37:53Z,42.805,6.029,13.2978,4.59980,2470.063,2020-9-26T02:38:45Z
2020-09-26T00:40:57Z,42.805,6.029,13.2981,4.59981,2470.053,2020-9-26T02:41:49Z
2020-09-26T00:44:00Z,42.805,6.029,13.2977,4.59981,2470.053,2020-9-26T02:44:52Z
2020-09-26T00:47:03Z,42.805,6.029,13.2981,4.59981,2470.03,2020-9-26T02:47:55Z
2020-09-26T00:50:07Z,42.805,6.029,13.2979,4.59981,2469.993,2020-9-26T02:50:59Z
2020-09-26T00:53:11Z,42.805,6.029,13.2978,4.59982,2470.03,2020-9-26T02:54:03Z
2020-09-26T00:56:13Z,42.805,6.029,13.2978,4.59981,2470.04,2020-9-26T02:57:06Z
2020-09-26T00:59:15Z,42.805,6.029,13.2979,4.59979,2470.017,2020-9-26T03:00:07Z
2020-09-26T01:02:19Z,42.805,6.029,13.2979,4.59978,2470.017,2020-9-26T03:03:12Z
2020-09-26T01:05:21Z,42.805,6.029,13.2977,4.59980,2470.053,2020-9-26T03:06:14Z
2020-09-26T01:08:26Z,42.805,6.029,13.2982,4.59983,2470.04,2020-9-26T03:09:18Z
2020-09-26T01:11:29Z,42.805,6.029,13.2980,4.59981,2470.053,2020-9-26T03:12:21Z
2020-09-26T01:14:32Z,42.805,6.029,13.2979,4.59981,2470.053,2020-9-26T03:15:25Z
2020-09-26T01:17:37Z,42.805,6.029,13.2981,4.59981,2470.017,2020-9-26T03:18:29Z
2020-09-26T01:20:39Z,42.805,6.029,13.2977,4.59981,2470.04,2020-9-26T03:21:31Z
2020-09-26T01:23:43Z,42.805,6.029,13.2983,4.59981,2470.04,2020-9-26T03:24:36Z
2020-09-26T01:26:45Z,42.805,6.029,13.2977,4.59982,2470.007,2020-9-26T03:27:37Z
2020-09-26T01:29:48Z,42.805,6.029,13.2980,4.59985,2470.017,2020-9-26T03:30:41Z
2020-09-26T01:32:52Z,42.805,6.029,13.2982,4.59981,2470.053,2020-9-26T03:33:44Z
2020-09-26T01:35:55Z,42.805,6.029,13.2980,4.59982,2470.017,2020-9-26T03:36:47Z
2020-09-26T01:38:58Z,42.805,6.029,13.2978,4.59981,2470.017,2020-9-26T03:39:51Z
2020-09-26T01:42:00Z,42.805,6.029,13.2982,4.59981,2470.017,2020-9-26T03:42:53Z
2020-09-26T01:45:02Z,42.805,6.029,13.2979,4.59981,2470.017,2020-9-26T03:45:55Z
2020-09-26T01:48:05Z,42.805,6.029,13.2978,4.59983,2470.077,2020-9-26T03:48:58Z
2020-09-26T01:51:09Z,42.805,6.029,13.2978,4.59983,2470.017,2020-9-26T03:52:01Z
2020-09-26T01:54:13Z,42.805,6.029,13.2977,4.59981,2470.017,2020-9-26T03:55:05Z
2020-09-26T01:57:17Z,42.805,6.029,13.2981,4.59981,2470.03,2020-9-26T03:58:10Z
2020-09-26T02:00:20Z,42.805,6.029,13.2976,4.59981,2470.04,2020-9-26T04:01:13Z
2020-09-26T02:03:22Z,42.805,6.029,13.2974,4.59981,2470.017,2020-9-26T04:04:14Z
2020-09-26T02:06:26Z,42.805,6.029,13.2981,4.59981,2470.03,2020-9-26T04:07:18Z
2020-09-26T02:09:29Z,42.805,6.029,13.2983,4.59981,2470.007,2020-9-26T04:10:21Z
2020-09-26T02:12:31Z,42.805,6.029,13.2982,4.59981,2470.03,2020-9-26T04:13:23Z
2020-09-26T02:15:35Z,42.805,6.029,13.2982,4.59981,2470.053,2020-9-26T04:16:27Z
2020-09-26T02:18:38Z,42.805,6.029,13.2980,4.59982,2470.04,2020-9-26T04:19:31Z
2020-09-26T02:21:41Z,42.805,6.029,13.2977,4.59980,2470.03,2020-9-26T04:22:33Z
2020-09-26T02:24:42Z,42.805,6.029,13.2981,4.59982,2470.017,2020-9-26T04:25:35Z
2020-09-26T02:27:44Z,42.805,6.029,13.2976,4.59985,2470.03,2020-9-26T04:28:36Z
2020-09-26T02:30:47Z,42.805,6.029,13.2982,4.59987,2470.04,2020-9-26T04:31:39Z
2020-09-26T02:33:50Z,42.805,6.029,13.2979,4.59982,2470.003,2020-9-26T04:34:42Z
2020-09-26T02:36:53Z,42.805,6.029,13.2979,4.59981,2470.03,2020-9-26T04:37:46Z
2020-09-26T02:39:55Z,42.805,6.029,13.2980,4.59982,2470.053,2020-9-26T04:40:48Z
2020-09-26T02:43:00Z,42.805,6.029,13.2980,4.59981,2470.017,2020-9-26T04:43:52Z
2020-09-26T02:46:04Z,42.805,6.029,13.2979,4.59982,2470.03,2020-9-26T04:46:56Z
2020-09-26T02:49:09Z,42.805,6.029,13.2979,4.59981,2470.04,2020-9-26T04:50:01Z
2020-09-26T02:52:10Z,42.805,6.029,13.2982,4.59981,2470.03,2020-9-26T04:53:02Z
2020-09-26T02:55:14Z,42.805,6.029,13.2979,4.59986,2470.017,2020-9-26T04:56:06Z
2020-09-26T02:58:16Z,42.805,6.029,13.2979,4.59981,2470.017,2020-9-26T04:59:08Z
2020-09-26T03:01:20Z,42.805,6.029,13.2980,4.59984,2470.053,2020-9-26T05:02:12Z
2020-09-26T03:04:23Z,42.805,6.029,13.2982,4.59981,2470.017,2020-9-26T05:05:16Z
2020-09-26T03:07:24Z,42.805,6.029,13.2978,4.59980,2470.017,2020-9-26T05:08:17Z
2020-09-26T03:10:29Z,42.805,6.029,13.2981,4.59981,2470.053,2020-9-26T05:11:21Z
2020-09-26T03:13:33Z,42.805,6.029,13.2976,4.59981,2470.03,2020-9-26T05:14:26Z
2020-09-26T03:16:35Z,42.805,6.029,13.2981,4.59982,2470.017,2020-9-26T05:17:27Z
2020-09-26T03:19:36Z,42.805,6.029,13.2982,4.59981,2470.04,2020-9-26T05:20:29Z
2020-09-26T03:22:41Z,42.805,6.029,13.2986,4.59982,2470.04,2020-9-26T05:23:33Z
2020-09-26T03:25:45Z,42.805,6.029,13.2976,4.59981,2470.04,2020-9-26T05:26:38Z
2020-09-26T03:28:49Z,42.805,6.029,13.2979,4.59981,2470.053,2020-9-26T05:29:41Z
2020-09-26T03:31:52Z,42.805,6.029,13.2981,4.59982,2470.017,2020-9-26T05:32:45Z
2020-09-26T03:34:55Z,42.805,6.029,13.2982,4.59981,2470.04,2020-9-26T05:35:48Z
2020-09-26T03:37:59Z,42.805,6.029,13.2983,4.59981,2469.993,2020-9-26T05:38:51Z
2020-09-26T03:41:02Z,42.805,6.029,13.2981,4.59984,2470.017,2020-9-26T05:41:55Z
2020-09-26T03:44:05Z,42.805,6.029,13.2981,4.59981,2469.993,2020-9-26T05:44:58Z
2020-09-26T03:47:09Z,42.805,6.029,13.2975,4.59981,2470.063,2020-9-26T05:48:01Z
2020-09-26T03:50:12Z,42.805,6.029,13.2978,4.59982,2470.04,2020-9-26T05:51:04Z
2020-09-26T03:53:15Z,42.805,6.029,13.2979,4.59981,2470.017,2020-9-26T05:54:08Z
2020-09-26T03:56:18Z,42.805,6.029,13.2983,4.59980,2470.04,2020-9-26T05:57:10Z
2020-09-26T03:59:20Z,42.805,6.029,13.2979,4.59983,2470.017,2020-9-26T06:00:13Z
2020-09-26T04:02:23Z,42.805,6.029,13.2979,4.59981,2470.017,2020-9-26T06:03:15Z
2020-09-26T04:05:24Z,42.805,6.029,13.2979,4.59981,2470.053,2020-9-26T06:06:17Z
2020-09-26T04:08:26Z,42.805,6.029,13.2976,4.59981,2470.053,2020-9-26T06:09:19Z
2020-09-26T04:11:29Z,42.805,6.029,13.2980,4.59980,2470.017,2020-9-26T06:12:22Z
2020-09-26T04:14:33Z,42.805,6.029,13.2980,4.59981,2470.017,2020-9-26T06:15:26Z
2020-09-26T04:17:37Z,42.805,6.029,13.2981,4.59981,2470.053,2020-9-26T06:18:29Z
2020-09-26T04:20:40Z,42.805,6.029,13.2983,4.59981,2470.017,2020-9-26T06:21:32Z
2020-09-26T04:23:41Z,42.805,6.029,13.2976,4.59981,2470.017,2020-9-26T06:24:33Z
2020-09-26T04:26:44Z,42.805,6.029,13.2980,4.59983,2470.04,2020-9-26T06:27:37Z
2020-09-26T04:29:47Z,42.805,6.029,13.2977,4.59987,2470.03,2020-9-26T06:30:40Z
2020-09-26T04:32:51Z,42.805,6.029,13.2979,4.59981,2470.017,2020-9-26T06:33:44Z
2020-09-26T04:35:54Z,42.805,6.029,13.2980,4.59981,2469.993,2020-9-26T06:36:47Z
2020-09-26T04:38:58Z,42.805,6.029,13.2978,4.59981,2470.017,2020-9-26T06:39:51Z
2020-09-26T04:42:01Z,42.805,6.029,13.2982,4.59982,2470.017,2020-9-26T06:42:53Z
2020-09-26T04:45:04Z,42.805,6.029,13.2979,4.59983,2470.017,2020-9-26T06:45:57Z
2020-09-26T04:48:07Z,42.805,6.029,13.2982,4.59981,2470.007,2020-9-26T06:48:59Z
2020-09-26T04:51:11Z,42.805,6.029,13.2982,4.59981,2470.04,2020-9-26T06:52:04Z
2020-09-26T04:54:13Z,42.805,6.029,13.2979,4.59981,2469.993,2020-9-26T06:55:06Z
2020-09-26T04:57:14Z,42.805,6.029,13.2979,4.59981,2469.993,2020-9-26T06:58:07Z
2020-09-26T05:00:16Z,42.805,6.029,13.2978,4.59981,2470.053,2020-9-26T07:01:09Z
2020-09-26T05:03:20Z,42.805,6.029,13.2981,4.59982,2470.03,2020-9-26T07:04:12Z
2020-09-26T05:06:21Z,42.805,6.029,13.2982,4.59981,2470.017,2020-9-26T07:07:14Z
2020-09-26T05:09:23Z,42.805,6.029,13.2979,4.59983,2470.03,2020-9-26T07:10:16Z
2020-09-26T05:12:27Z,42.805,6.029,13.2979,4.59981,2469.993,2020-9-26T07:13:19Z
2020-09-26T05:15:28Z,42.805,6.029,13.2980,4.59982,2470.03,2020-9-26T07:16:20Z
2020-09-26T05:18:31Z,42.805,6.029,13.2982,4.59981,2469.97,2020-9-26T07:19:23Z
2020-09-26T05:21:32Z,42.805,6.029,13.2979,4.59981,2470.017,2020-9-26T07:22:24Z
2020-09-26T05:24:37Z,42.805,6.029,13.2976,4.59980,2469.993,2020-9-26T07:25:29Z
2020-09-26T05:27:41Z,42.805,6.029,13.2979,4.59980,2470.017,2020-9-26T07:28:34Z
2020-09-26T05:30:42Z,42.805,6.029,13.2981,4.59979,2469.993,2020-9-26T07:31:35Z
2020-09-26T05:33:45Z,42.805,6.029,13.2981,4.59983,2470.04,2020-9-26T07:34:38Z
2020-09-26T05:36:48Z,42.805,6.029,13.2979,4.59981,2470.017,2020-9-26T07:37:41Z
2020-09-26T05:39:52Z,42.805,6.029,13.2982,4.59982,2470.017,2020-9-26T07:40:44Z
2020-09-26T05:42:56Z,42.805,6.029,13.2979,4.59981,2470.04,2020-9-26T07:43:49Z
2020-09-26T05:46:00Z,42.805,6.029,13.2976,4.59981,2470.017,2020-9-26T07:46:53Z
2020-09-26T05:49:04Z,42.805,6.029,13.2981,4.59980,2469.993,2020-9-26T07:49:56Z
2020-09-26T05:52:06Z,42.805,6.029,13.2976,4.59981,2470.017,2020-9-26T07:52:58Z
2020-09-26T05:55:11Z,42.805,6.029,13.2983,4.59980,2469.97,2020-9-26T07:56:03Z
2020-09-26T05:58:16Z,42.805,6.029,13.2979,4.59981,2470.007,2020-9-26T07:59:08Z
2020-09-26T06:01:18Z,42.805,6.029,13.2974,4.59982,2470.03,2020-9-26T08:02:10Z
2020-09-26T06:04:23Z,42.805,6.029,13.2981,4.59986,2470.017,2020-9-26T08:05:15Z
2020-09-26T06:07:25Z,42.805,6.029,13.2982,4.59982,2470.03,2020-9-26T08:08:18Z
2020-09-26T06:10:27Z,42.805,6.029,13.2979,4.59979,2469.993,2020-9-26T08:11:19Z
2020-09-26T06:13:30Z,42.805,6.029,13.2976,4.59981,2470.017,2020-9-26T08:14:22Z
2020-09-26T06:16:31Z,42.805,6.029,13.2978,4.59979,2469.993,2020-9-26T08:17:24Z
2020-09-26T06:19:34Z,42.805,6.029,13.2977,4.59980,2469.993,2020-9-26T08:20:27Z
2020-09-26T06:22:36Z,42.805,6.029,13.2976,4.59980,2469.993,2020-9-26T08:23:28Z
2020-09-26T06:25:39Z,42.805,6.029,13.2979,4.59978,2469.993,2020-9-26T08:26:31Z
2020-09-26T06:28:42Z,42.805,6.029,13.2976,4.59980,2469.979,2020-9-26T08:29:34Z
2020-09-26T06:31:44Z,42.805,6.029,13.2977,4.59979,2469.993,2020-9-26T08:32:37Z
2020-09-26T06:34:47Z,42.805,6.029,13.2981,4.59978,2470.017,2020-9-26T08:35:40Z
2020-09-26T06:37:51Z,42.805,6.029,13.2979,4.59980,2469.984,2020-9-26T08:38:43Z
2020-09-26T06:40:55Z,42.805,6.029,13.2979,4.59981,2470.017,2020-9-26T08:41:48Z
2020-09-26T06:43:59Z,42.805,6.029,13.2980,4.59978,2469.947,2020-9-26T08:44:51Z
2020-09-26T06:47:01Z,42.805,6.029,13.2978,4.59978,2469.984,2020-9-26T08:47:53Z
2020-09-26T06:50:05Z,42.805,6.029,13.2976,4.59978,2470.007,2020-9-26T08:50:57Z
2020-09-26T06:53:09Z,42.805,6.029,13.2980,4.59978,2470.021,2020-9-26T08:54:02Z
2020-09-26T06:56:14Z,42.805,6.029,13.2976,4.59981,2469.984,2020-9-26T08:57:06Z
2020-09-26T06:59:17Z,42.805,6.029,13.2972,4.59978,2469.993,2020-9-26T09:00:09Z
2020-09-26T07:02:21Z,42.805,6.029,13.2979,4.59979,2469.947,2020-9-26T09:03:13Z
2020-09-26T07:05:22Z,42.805,6.029,13.2976,4.59978,2469.993,2020-9-26T09:06:15Z
2020-09-26T07:08:26Z,42.805,6.029,13.2982,4.59979,2470.007,2020-9-26T09:09:18Z
2020-09-26T07:11:27Z,42.805,6.029,13.2979,4.59979,2469.993,2020-9-26T09:12:20Z
2020-09-26T07:14:30Z,42.805,6.029,13.2979,4.59980,2470.017,2020-9-26T09:15:22Z
2020-09-26T07:17:31Z,42.805,6.029,13.2976,4.59978,2469.97,2020-9-26T09:18:24Z
2020-09-26T07:20:35Z,42.805,6.029,13.2978,4.59979,2469.97,2020-9-26T09:21:27Z
2020-09-26T07:23:36Z,42.805,6.029,13.2976,4.59978,2469.97,2020-9-26T09:24:28Z
2020-09-26T07:26:38Z,42.805,6.029,13.2975,4.59978,2469.97,2020-9-26T09:27:30Z
2020-09-26T07:29:41Z,42.805,6.029,13.2976,4.59978,2469.923,2020-9-26T09:30:34Z
2020-09-26T07:32:44Z,42.805,6.029,13.2978,4.59978,2470.03,2020-9-26T09:33:37Z
2020-09-26T07:35:48Z,42.805,6.029,13.2974,4.59981,2469.97,2020-9-26T09:36:40Z
2020-09-26T07:38:51Z,42.805,6.029,13.2977,4.59978,2469.993,2020-9-26T09:39:44Z
2020-09-26T07:41:55Z,42.805,6.029,13.2980,4.59977,2469.993,2020-9-26T09:42:47Z
2020-09-26T07:44:58Z,42.805,6.029,13.2979,4.59978,2470.017,2020-9-26T09:45:50Z
2020-09-26T07:48:00Z,42.805,6.029,13.2976,4.59978,2470.017,2020-9-26T09:48:53Z
2020-09-26T07:51:02Z,42.805,6.029,13.2980,4.59978,2470.007,2020-9-26T09:51:55Z
2020-09-26T07:54:06Z,42.805,6.029,13.2979,4.59978,2469.993,2020-9-26T09:54:59Z
2020-09-26T07:57:08Z,42.805,6.029,13.2976,4.59979,2469.993,2020-9-26T09:58:01Z
2020-09-26T08:00:12Z,42.805,6.029,13.2974,4.59978,2469.97,2020-9-26T10:01:05Z
2020-09-26T08:03:16Z,42.805,6.029,13.2977,4.59982,2469.97,2020-9-26T10:04:08Z
2020-09-26T08:06:19Z,42.805,6.029,13.2979,4.59978,2469.993,2020-9-26T10:07:11Z
2020-09-26T08:09:22Z,42.805,6.029,13.2974,4.59978,2470.017,2020-9-26T10:10:15Z
2020-09-26T08:12:26Z,42.805,6.029,13.2976,4.59978,2469.97,2020-9-26T10:13:18Z
2020-09-26T08:15:29Z,42.805,6.029,13.2980,4.59978,2469.947,2020-9-26T10:16:21Z
2020-09-26T08:18:33Z,42.805,6.029,13.2977,4.59980,2470.007,2020-9-26T10:19:25Z
2020-09-26T08:21:36Z,42.805,6.029,13.2977,4.59978,2469.97,2020-9-26T10:22:28Z
2020-09-26T08:24:39Z,42.805,6.029,13.2979,4.59978,2469.993,2020-9-26T10:25:32Z
2020-09-26T08:27:42Z,42.805,6.029,13.2976,4.59978,2469.984,2020-9-26T10:28:35Z
2020-09-26T08:30:46Z,42.805,6.029,13.2974,4.59978,2469.947,2020-9-26T10:31:38Z
2020-09-26T08:33:49Z,42.805,6.029,13.2975,4.59978,2469.993,2020-9-26T10:34:41Z
2020-09-26T08:36:51Z,42.805,6.029,13.2976,4.59980,2469.97,2020-9-26T10:37:44Z
2020-09-26T08:39:56Z,42.805,6.029,13.2979,4.59980,2469.97,2020-9-26T10:40:48Z
2020-09-26T08:42:57Z,42.805,6.029,13.2976,4.59981,2469.96,2020-9-26T10:43:50Z
2020-09-26T08:46:02Z,42.805,6.029,13.2976,4.59979,2469.984,2020-9-26T10:46:54Z
2020-09-26T08:49:07Z,42.805,6.029,13.2979,4.59978,2469.993,2020-9-26T10:49:59Z
2020-09-26T08:52:11Z,42.805,6.029,13.2978,4.59980,2469.947,2020-9-26T10:53:03Z
2020-09-26T08:55:14Z,42.805,6.029,13.2977,4.59978,2469.993,2020-9-26T10:56:07Z
2020-09-26T08:58:16Z,42.805,6.029,13.2972,4.59979,2470.007,2020-9-26T10:59:08Z
2020-09-26T09:01:20Z,42.805,6.029,13.2976,4.59979,2469.993,2020-9-26T11:02:13Z
2020-09-26T09:04:24Z,42.805,6.029,13.2976,4.59978,2469.984,2020-9-26T11:05:17Z
2020-09-26T09:07:26Z,42.805,6.029,13.2976,4.59981,2469.97,2020-9-26T11:08:18Z
2020-09-26T09:10:29Z,42.805,6.029,13.2976,4.59979,2469.97,2020-9-26T11:11:21Z
2020-09-26T09:13:32Z,42.805,6.029,13.2976,4.59978,2469.97,2020-9-26T11:14:25Z
2020-09-26T09:16:37Z,42.805,6.029,13.2975,4.59978,2469.97,2020-9-26T11:17:30Z
2020-09-26T09:19:42Z,42.805,6.029,13.2976,4.59978,2469.96,2020-9-26T11:20:34Z
2020-09-26T09:22:46Z,42.805,6.029,13.2974,4.59978,2469.984,2020-9-26T11:23:38Z
2020-09-26T09:25:47Z,42.805,6.029,13.2980,4.59978,2469.984,2020-9-26T11:26:40Z
2020-09-26T09:28:49Z,42.805,6.029,13.2975,4.59978,2469.97,2020-9-26T11:29:41Z
2020-09-26T09:31:51Z,42.805,6.029,13.2981,4.59978,2469.984,2020-9-26T11:32:43Z
2020-09-26T09:34:54Z,42.805,6.029,13.2977,4.59978,2469.984,2020-9-26T11:35:47Z
2020-09-26T09:37:57Z,42.805,6.029,13.2976,4.59978,2469.984,2020-9-26T11:38:49Z
2020-09-26T09:41:01Z,42.805,6.029,13.2980,4.59978,2469.984,2020-9-26T11:41:54Z
2020-09-26T09:44:05Z,42.805,6.029,13.2978,4.59980,2469.947,2020-9-26T11:44:57Z
2020-09-26T09:47:08Z,42.805,6.029,13.2977,4.59978,2469.97,2020-9-26T11:48:01Z
2020-09-26T09:50:10Z,42.805,6.029,13.2979,4.59980,2470.007,2020-9-26T11:51:03Z
2020-09-26T09:53:15Z,42.805,6.029,13.2979,4.59979,2469.97,2020-9-26T11:54:07Z
2020-09-26T09:56:20Z,42.805,6.029,13.2974,4.59981,2469.97,2020-9-26T11:57:12Z
2020-09-26T09:59:23Z,42.805,6.029,13.2976,4.59978,2469.97,2020-9-26T12:00:16Z
2020-09-26T10:02:24Z,42.805,6.029,13.2978,4.59978,2469.97,2020-9-26T12:03:17Z
2020-09-26T10:05:28Z,42.805,6.029,13.2979,4.59978,2469.993,2020-9-26T12:06:21Z
2020-09-26T10:08:30Z,42.805,6.029,13.2978,4.59978,2469.984,2020-9-26T12:09:23Z
2020-09-26T10:11:33Z,42.805,6.029,13.2976,4.59978,2469.993,2020-9-26T12:12:25Z
2020-09-26T10:14:37Z,42.805,6.029,13.2973,4.59978,2469.993,2020-9-26T12:15:30Z
2020-09-26T10:17:40Z,42.805,6.029,13.2976,4.59977,2469.984,2020-9-26T12:18:33Z
2020-09-26T10:20:45Z,42.805,6.029,13.2976,4.59978,2470.017,2020-9-26T12:21:37Z
2020-09-26T10:23:47Z,42.805,6.029,13.2977,4.59978,2469.984,2020-9-26T12:24:39Z
2020-09-26T10:26:51Z,42.805,6.029,13.2977,4.59978,2469.984,2020-9-26T12:27:44Z
2020-09-26T10:29:54Z,42.805,6.029,13.2975,4.59981,2469.97,2020-9-26T12:30:46Z
2020-09-26T10:32:58Z,42.805,6.029,13.2978,4.59978,2470.017,2020-9-26T12:33:51Z
2020-09-26T10:36:02Z,42.805,6.029,13.2977,4.59978,2470.03,2020-9-26T12:36:55Z
2020-09-26T10:39:07Z,42.805,6.029,13.2976,4.59978,2469.993,2020-9-26T12:39:59Z
2020-09-26T10:42:10Z,42.805,6.029,13.2978,4.59981,2469.984,2020-9-26T12:43:03Z
2020-09-26T10:45:13Z,42.805,6.029,13.2976,4.59978,2469.984,2020-9-26T12:46:06Z
2020-09-26T10:48:15Z,42.805,6.029,13.2982,4.59978,2469.993,2020-9-26T12:49:07Z
2020-09-26T10:51:16Z,42.805,6.029,13.2977,4.59978,2469.97,2020-9-26T12:52:08Z
2020-09-26T10:54:17Z,42.805,6.029,13.2978,4.59979,2470.017,2020-9-26T12:55:10Z
2020-09-26T10:57:21Z,42.805,6.029,13.2978,4.59978,2469.993,2020-9-26T12:58:13Z
2020-09-26T11:00:25Z,42.805,6.029,13.2976,4.59976,2469.97,2020-9-26T13:01:18Z
2020-09-26T11:03:29Z,42.805,6.029,13.2976,4.59978,2469.956,2020-9-26T13:04:21Z
2020-09-26T11:06:31Z,42.805,6.029,13.2976,4.59978,2470.017,2020-9-26T13:07:23Z
2020-09-26T11:09:33Z,42.805,6.029,13.2974,4.59978,2470.03,2020-9-26T13:10:25Z
2020-09-26T11:12:38Z,42.805,6.029,13.2979,4.59978,2469.993,2020-9-26T13:13:30Z
2020-09-26T11:15:39Z,42.805,6.029,13.2976,4.59978,2469.947,2020-9-26T13:16:32Z
2020-09-26T11:18:44Z,42.805,6.029,13.2976,4.59978,2470.03,2020-9-26T13:19:36Z
2020-09-26T11:21:48Z,42.805,6.029,13.2975,4.59980,2470.007,2020-9-26T13:22:41Z
2020-09-26T11:24:49Z,42.805,6.029,13.2975,4.59976,2470.017,2020-9-26T13:25:42Z
2020-09-26T11:27:54Z,42.805,6.029,13.2975,4.59978,2469.97,2020-9-26T13:28:46Z
2020-09-26T11:30:57Z,42.805,6.029,13.2980,4.59978,2470.017,2020-9-26T13:31:50Z
2020-09-26T11:34:03Z,42.805,6.029,13.2975,4.59978,2469.993,2020-9-26T13:34:54Z
2020-09-26T11:37:06Z,42.805,6.029,13.2982,4.59978,2470.017,2020-9-26T13:37:59Z
2020-09-26T11:40:10Z,42.805,6.029,13.2976,4.59978,2469.993,2020-9-26T13:41:02Z
2020-09-26T11:43:14Z,42.805,6.029,13.2976,4.59978,2470.04,2020-9-26T13:44:06Z
2020-09-26T11:46:18Z,42.805,6.029,13.2976,4.59978,2470.017,2020-9-26T13:47:10Z
2020-09-26T11:49:22Z,42.805,6.029,13.2977,4.59978,2469.979,2020-9-26T13:50:15Z
2020-09-26T11:52:26Z,42.805,6.029,13.2979,4.59978,2470.017,2020-9-26T13:53:18Z
2020-09-26T11:55:27Z,42.805,6.029,13.2979,4.59978,2470.017,2020-9-26T13:56:19Z
2020-09-26T11:58:32Z,42.805,6.029,13.2976,4.59978,2469.993,2020-9-26T13:59:24Z
2020-09-26T12:01:38Z,42.805,6.029,13.2979,4.59978,2470.03,2020-9-26T14:02:29Z
2020-09-26T12:04:42Z,42.805,6.029,13.2975,4.59978,2470.04,2020-9-26T14:05:34Z
2020-09-26T12:07:45Z,42.805,6.029,13.2974,4.59978,2470.017,2020-9-26T14:08:37Z
2020-09-26T12:10:46Z,42.805,6.029,13.2976,4.59978,2470.017,2020-9-26T14:11:38Z
2020-09-26T12:13:49Z,42.805,6.029,13.2980,4.59978,2470.04,2020-9-26T14:14:41Z
2020-09-26T12:16:51Z,42.805,6.029,13.2976,4.59979,2470.04,2020-9-26T14:17:43Z
2020-09-26T12:19:53Z,42.805,6.029,13.2975,4.59978,2470.04,2020-9-26T14:20:45Z
2020-09-26T12:22:58Z,42.805,6.029,13.2977,4.59980,2470.04,2020-9-26T14:23:50Z
2020-09-26T12:26:01Z,42.805,6.029,13.2976,4.59978,2470.063,2020-9-26T14:26:54Z
2020-09-26T12:29:04Z,42.805,6.029,13.2975,4.59978,2470.04,2020-9-26T14:29:56Z
2020-09-26T12:32:06Z,42.805,6.029,13.2974,4.59978,2470.03,2020-9-26T14:32:58Z
2020-09-26T12:35:10Z,42.805,6.029,13.2976,4.59978,2470.053,2020-9-26T14:36:02Z
2020-09-26T12:38:15Z,42.805,6.029,13.2974,4.59978,2470.077,2020-9-26T14:39:07Z
2020-09-26T12:41:18Z,42.805,6.029,13.2977,4.59978,2470.04,2020-9-26T14:42:10Z
2020-09-26T12:44:21Z,42.805,6.029,13.2976,4.59978,2470.017,2020-9-26T14:45:14Z
2020-09-26T12:47:25Z,42.805,6.029,13.2974,4.59981,2470.04,2020-9-26T14:48:17Z
2020-09-26T12:50:27Z,42.805,6.029,13.2983,4.59978,2470.053,2020-9-26T14:51:20Z
2020-09-26T12:53:29Z,42.805,6.029,13.2980,4.59978,2470.063,2020-9-26T14:54:22Z
2020-09-26T12:56:33Z,42.805,6.029,13.2979,4.59978,2470.053,2020-9-26T14:57:26Z
2020-09-26T12:59:34Z,42.805,6.029,13.2981,4.59979,2470.063,2020-9-26T15:00:27Z
2020-09-26T13:02:37Z,42.805,6.029,13.2976,4.59981,2470.063,2020-9-26T15:03:30Z
2020-09-26T13:05:39Z,42.805,6.029,13.2977,4.59978,2470.04,2020-9-26T15:06:32Z
2020-09-26T13:08:43Z,42.805,6.029,13.2974,4.59979,2470.063,2020-9-26T15:09:36Z
2020-09-26T13:11:48Z,42.805,6.029,13.2977,4.59978,2470.077,2020-9-26T15:12:41Z
2020-09-26T13:14:52Z,42.805,6.029,13.2978,4.59978,2470.077,2020-9-26T15:15:44Z
2020-09-26T13:17:54Z,42.805,6.029,13.2978,4.59980,2470.053,2020-9-26T15:18:47Z
2020-09-26T13:20:56Z,42.805,6.029,13.2976,4.59979,2470.063,2020-9-26T15:21:48Z
2020-09-26T13:24:01Z,42.805,6.029,13.2976,4.59978,2470.077,2020-9-26T15:24:53Z
2020-09-26T13:27:04Z,42.805,6.029,13.2978,4.59979,2470.087,2020-9-26T15:27:57Z
2020-09-26T13:30:07Z,42.805,6.029,13.2976,4.59978,2470.077,2020-9-26T15:30:59Z
2020-09-26T13:33:11Z,42.805,6.029,13.2979,4.59979,2470.1,2020-9-26T15:34:03Z
2020-09-26T13:36:15Z,42.805,6.029,13.2976,4.59980,2470.063,2020-9-26T15:37:08Z
2020-09-26T13:39:19Z,42.805,6.029,13.2974,4.59978,2470.087,2020-9-26T15:40:11Z
2020-09-26T13:42:23Z,42.805,6.029,13.2974,4.59978,2470.087,2020-9-26T15:43:15Z
2020-09-26T13:45:27Z,42.805,6.029,13.2975,4.59980,2470.087,2020-9-26T15:46:20Z
2020-09-26T13:48:30Z,42.805,6.029,13.2978,4.59981,2470.1,2020-9-26T15:49:22Z
2020-09-26T13:51:31Z,42.805,6.029,13.2974,4.59980,2470.077,2020-9-26T15:52:23Z
2020-09-26T13:54:35Z,42.805,6.029,13.2976,4.59978,2470.087,2020-9-26T15:55:28Z
2020-09-26T13:57:38Z,42.805,6.029,13.2981,4.59980,2470.087,2020-9-26T15:58:31Z
2020-09-26T14:00:42Z,42.805,6.029,13.2974,4.59978,2470.087,2020-9-26T16:01:34Z
2020-09-26T14:03:45Z,42.805,6.029,13.2980,4.59978,2470.1,2020-9-26T16:04:38Z
2020-09-26T14:06:50Z,42.805,6.029,13.2977,4.59979,2470.11,2020-9-26T16:07:42Z
2020-09-26T14:09:54Z,42.805,6.029,13.2977,4.59978,2470.124,2020-9-26T16:10:46Z
2020-09-26T14:12:57Z,42.805,6.029,13.2974,4.59980,2470.124,2020-9-26T16:13:50Z
2020-09-26T14:16:00Z,42.805,6.029,13.2979,4.59979,2470.133,2020-9-26T16:16:53Z
2020-09-26T14:19:04Z,42.805,6.029,13.2976,4.59981,2470.11,2020-9-26T16:19:57Z
2020-09-26T14:22:05Z,42.805,6.029,13.2976,4.59978,2470.124,2020-9-26T16:22:58Z
2020-09-26T14:25:09Z,42.805,6.029,13.2976,4.59978,2470.147,2020-9-26T16:26:01Z
2020-09-26T14:28:10Z,42.805,6.029,13.2974,4.59980,2470.063,2020-9-26T16:29:03Z
2020-09-26T14:31:12Z,42.805,6.029,13.2978,4.59979,2470.096,2020-9-26T16:32:05Z
2020-09-26T14:34:16Z,42.805,6.029,13.2975,4.59978,2470.11,2020-9-26T16:35:09Z
2020-09-26T14:37:21Z,42.805,6.029,13.2974,4.59980,2470.124,2020-9-26T16:38:13Z
2020-09-26T14:40:25Z,42.805,6.029,13.2976,4.59978,2470.087,2020-9-26T16:41:17Z
2020-09-26T14:43:28Z,42.805,6.029,13.2981,4.59978,2470.11,2020-9-26T16:44:21Z
2020-09-26T14:46:33Z,42.805,6.029,13.2977,4.59978,2470.11,2020-9-26T16:47:26Z
2020-09-26T14:49:37Z,42.805,6.029,13.2979,4.59978,2470.11,2020-9-26T16:50:29Z
2020-09-26T14:52:41Z,42.805,6.029,13.2976,4.59978,2470.133,2020-9-26T16:53:33Z
2020-09-26T14:55:45Z,42.805,6.029,13.2978,4.59979,2470.087,2020-9-26T16:56:37Z
2020-09-26T14:58:47Z,42.805,6.029,13.2974,4.59979,2470.147,2020-9-26T16:59:40Z
2020-09-26T15:01:49Z,42.805,6.029,13.2978,4.59979,2470.133,2020-9-26T17:02:42Z
2020-09-26T15:04:51Z,42.805,6.029,13.2977,4.59978,2470.11,2020-9-26T17:05:43Z
2020-09-26T15:07:54Z,42.805,6.029,13.2974,4.59978,2470.11,2020-9-26T17:08:47Z
2020-09-26T15:10:55Z,42.805,6.029,13.2973,4.59978,2470.087,2020-9-26T17:11:48Z
2020-09-26T15:13:59Z,42.805,6.029,13.2976,4.59978,2470.133,2020-9-26T17:14:52Z